Regional Weather Roundup
Issued by NWS

Home | Current Version | Previous Version | Text Only | Print | Product List | Glossary Off
Versions: 1 2 3 4 5 6 7 8 9 10 11 12 13 14 15 16 17 18 19 20 21 22 23 24 25 26 27 28 29 30 31 32 33 34 35 36 37 38 39 40 41 42 43 44 45 46 47 48 49 50

000
ASUS43 KBIS 251210
RWRND

NORTH DAKOTA REGIONAL WEATHER ROUNDUP
NATIONAL WEATHER SERVICE BISMARCK ND
700 AM CDT SUN SEP 25 2016

NOTE: "FAIR" INDICATES FEW OR NO CLOUDS BELOW 12,000 FEET WITH NO
SIGNIFICANT WEATHER AND/OR OBSTRUCTIONS TO VISIBILITY.


NDZ001>003-009>011-017-251300-
NORTHWEST NORTH DAKOTA

CITY           SKY/WX    TMP DP  RH WIND       PRES   REMARKS
WILLISTON      CLEAR     46  39  76 NW18      30.11R
6HR MIN TEMP:  46; 6HR MAX TEMP:  52; 6HR PCP:  0.21;

MINOT          CLOUDY    52  49  89 W24G33    29.91R
MINOT AFB      LGT RAIN  51  49  93 NW21G28   29.90R
$$

NDZ018>021-031>035-040>046-251300-
SOUTHWEST NORTH DAKOTA

CITY           SKY/WX    TMP DP  RH WIND       PRES   REMARKS
BISMARCK       LGT RAIN  52  48  86 NW29G38   29.93R
6HR MIN TEMP:  51; 6HR MAX TEMP:  55; 6HR PCP:  0.06;

DICKINSON      PTCLDY    44  40  85 NW21      30.07R
GARRISON         N/A     50  49  96 NW26G36   29.94R
6HR MIN TEMP:  50; 6HR MAX TEMP:  55; 6HR PCP:  0.08;

HETTINGER ARPT CLEAR     45  39  79 NW22G29   30.12R
$$

NDZ004>008-012>016-024-026-027-054-251300-
NORTHEAST NORTH DAKOTA

CITY           SKY/WX    TMP DP  RH WIND       PRES   REMARKS
GRAND FORKS    PTCLDY    53  49  86 S12       29.69F
GRND FRKS AFB  CLEAR     52  49  89 SW9       29.69F
DEVILS LAKE    LGT RAIN  55  54  96 NW18      29.71R
$$

NDZ022-023-025-028>030-036>039-047>053-251300-
SOUTHEAST NORTH DAKOTA

CITY           SKY/WX    TMP DP  RH WIND       PRES   REMARKS
FARGO          CLOUDY    55  48  77 S13       29.76F
6HR MIN TEMP:  54; 6HR MAX TEMP:  68;

JAMESTOWN      CLOUDY    52  50  93 W13G21    29.76R
$$





USA.gov is the U.S. government's official web portal to all federal, state and local government web resources and services.